User: anonymous   Login
Location: Az?znagar
(16.8373°N, 80.5091°E)
Time: 04:24:06
(UTC+00:00)
Language:

Meteor PRIRODA - Orbit

View from above orbital plane
View from above orbital plane
View from above satellite
View from above satellite

Ground track
Ground track

The orbit data is extracted from the following two-line orbital elements,

1 12585U 81065A   22144.89669896  .00006681  00000-0  27814-3 0  9991
2 12585  97.5836 149.5009 0012417 212.6114 147.4357 15.24022215230584
Epoch (UTC): 24 May 2022 21:31:14
Eccentricity: 0.0012417
inclination: 97.5836°
perigee height: 485 km
apogee height: 502 km
right ascension of ascending node: 149.5009°
argument of perigee: 212.6114°
revolutions per day: 15.24022215
mean anomaly at epoch: 147.4357°
orbit number at epoch: 23058

The dashed part of the orbit path shows where the satellite is in the earth's shadow,  

DLR